�������l�o���
Date,Time,MP-1(��Sv/h),MP-2(��Sv/h),MP-3(��Sv/h),MP-4(��Sv/h),MP-5(��Sv/h),MP-6(��Sv/h),MP-7(��Sv/h),MP-8(��Sv/h),����,����(m/s),���J
2017/12/03,00:00,0.888,1.455,0.928,1.741,1.185,0.492,0.877,0.841,���쐼,1.4,��
2017/12/03,00:10,0.887,1.457,0.927,1.739,1.187,0.491,0.877,0.842,�쐼,1.2,��
2017/12/03,00:20,0.887,1.458,0.927,1.742,1.184,0.491,0.877,0.843,���쐼,0.9,��
2017/12/03,00:30,0.885,1.456,0.929,1.741,1.186,0.492,0.877,0.843,��쐼,1.2,��
2017/12/03,00:40,0.887,1.459,0.926,1.746,1.187,0.491,0.877,0.842,��,1.2,��
2017/12/03,00:50,0.888,1.457,0.930,1.742,1.190,0.491,0.878,0.842,��쓌,1.5,��
2017/12/03,01:00,0.888,1.458,0.927,1.742,1.186,0.491,0.876,0.842,��,0.6,��
2017/12/03,01:10,0.887,1.458,0.926,1.742,1.190,0.491,0.877,0.842,���쐼,0.9,��
2017/12/03,01:20,0.889,1.457,0.928,1.741,1.189,0.491,0.877,0.843,�쐼,1.7,��
2017/12/03,01:30,0.886,1.460,0.928,1.743,1.188,0.491,0.878,0.843,�쐼,2.6,��
2017/12/03,01:40,0.888,1.456,0.927,1.743,1.187,0.492,0.879,0.843,���k��,2.0,��
2017/12/03,01:50,0.886,1.458,0.928,1.742,1.187,0.492,0.878,0.842,���k��,1.4,��
2017/12/03,02:00,0.886,1.457,0.930,1.741,1.185,0.493,0.879,0.841,�k��,1.4,��
2017/12/03,02:10,0.889,1.459,0.926,1.743,1.187,0.492,0.877,0.841,�k,2.2,��
2017/12/03,02:20,0.887,1.456,0.927,1.743,1.185,0.491,0.875,0.840,�k,2.5,��
2017/12/03,02:30,0.887,1.456,0.928,1.742,1.186,0.492,0.877,0.842,�k�k��,1.5,��
2017/12/03,02:40,0.889,1.458,0.928,1.742,1.189,0.490,0.875,0.843,�k��,0.6,��
2017/12/03,02:50,0.888,1.456,0.927,1.740,1.186,0.491,0.877,0.841,���쐼,1.1,��
2017/12/03,03:00,0.888,1.455,0.928,1.741,1.188,0.491,0.878,0.843,��쐼,2.3,��
2017/12/03,03:10,0.887,1.453,0.928,1.741,1.187,0.493,0.877,0.844,�쐼,2.5,��
2017/12/03,03:20,0.888,1.459,0.929,1.740,1.185,0.492,0.877,0.843,�쐼,3.3,��
2017/12/03,03:30,0.888,1.458,0.926,1.746,1.186,0.492,0.877,0.843,��쐼,2.6,��
2017/12/03,03:40,0.889,1.458,0.927,1.741,1.187,0.491,0.877,0.842,�쐼,2.6,��
2017/12/03,03:50,0.887,1.461,0.930,1.740,1.187,0.492,0.878,0.843,�쐼,3.1,��
2017/12/03,04:00,0.889,1.457,0.926,1.743,1.186,0.492,0.879,0.842,�쐼,3.6,��
2017/12/03,04:10,0.888,1.459,0.930,1.745,1.188,0.493,0.878,0.841,�쐼,3.8,��
2017/12/03,04:20,0.887,1.457,0.926,1.745,1.186,0.492,0.878,0.841,�쐼,4.6,��
2017/12/03,04:30,0.888,1.456,0.930,1.743,1.186,0.492,0.880,0.843,�쐼,4.9,��
2017/12/03,04:40,0.886,1.455,0.927,1.743,1.186,0.494,0.877,0.843,�쐼,4.9,��
2017/12/03,04:50,0.888,1.457,0.928,1.740,1.188,0.492,0.875,0.842,�쐼,5.3,��
2017/12/03,05:00,0.889,1.456,0.928,1.742,1.186,0.492,0.878,0.842,�쐼,4.9,��
2017/12/03,05:10,0.888,1.459,0.929,1.743,1.185,0.493,0.878,0.843,�쐼,4.8,��
2017/12/03,05:20,0.889,1.458,0.928,1.745,1.187,0.493,0.876,0.842,�쐼,5.1,��
2017/12/03,05:30,0.888,1.459,0.929,1.741,1.188,0.493,0.877,0.843,��쐼,4.9,��
2017/12/03,05:40,0.890,1.454,0.930,1.743,1.187,0.491,0.878,0.842,��쐼,5.0,��
2017/12/03,05:50,0.888,1.458,0.930,1.744,1.187,0.492,0.878,0.842,��쐼,4.9,��
2017/12/03,06:00,0.887,1.458,0.927,1.743,1.187,0.492,0.879,0.842,��쐼,4.8,��
2017/12/03,06:10,0.887,1.456,0.928,1.744,1.187,0.492,0.878,0.844,��,4.6,��
2017/12/03,06:20,0.891,1.458,0.928,1.742,1.186,0.493,0.880,0.843,��쐼,4.3,��
2017/12/03,06:30,0.889,1.455,0.927,1.746,1.188,0.493,0.878,0.842,��,4.7,��
2017/12/03,06:40,0.890,1.459,0.929,1.742,1.187,0.492,0.881,0.843,��,5.9,��
2017/12/03,06:50,0.888,1.458,0.928,1.743,1.186,0.493,0.877,0.843,��쐼,6.5,��
2017/12/03,07:00,0.887,1.458,0.928,1.743,1.186,0.493,0.880,0.844,��,6.3,��
2017/12/03,07:10,0.887,1.455,0.928,1.743,1.186,0.491,0.880,0.843,��,6.2,��
2017/12/03,07:20,0.889,1.455,0.929,1.744,1.187,0.494,0.878,0.843,��,6.5,��
2017/12/03,07:30,0.889,1.459,0.929,1.742,1.185,0.493,0.879,0.842,��,5.7,��
2017/12/03,07:40,0.887,1.459,0.931,1.742,1.187,0.494,0.880,0.843,��,5.7,��
2017/12/03,07:50,0.889,1.461,0.931,1.742,1.186,0.492,0.878,0.844,��쐼,5.1,��
2017/12/03,08:00,0.889,1.457,0.929,1.744,1.187,0.493,0.877,0.843,��,5.4,��
2017/12/03,08:10,0.889,1.457,0.927,1.745,1.189,0.494,0.879,0.842,��쐼,5.4,��
2017/12/03,08:20,0.890,1.458,0.932,1.745,1.189,0.492,0.879,0.844,��쐼,3.3,��
2017/12/03,08:30,0.893,1.458,0.929,1.748,1.189,0.495,0.878,0.843,��쐼,4.8,��
2017/12/03,08:40,0.889,1.460,0.933,1.748,1.190,0.493,0.881,0.844,��쐼,4.7,��
2017/12/03,08:50,0.890,1.462,0.931,1.744,1.190,0.494,0.883,0.845,��쐼,4.9,��
2017/12/03,09:00,0.891,1.463,0.933,1.746,1.190,0.494,0.881,0.843,��쐼,4.2,��
2017/12/03,09:10,0.892,1.463,0.932,1.747,1.189,0.494,0.883,0.845,�쐼,3.4,��
2017/12/03,09:20,0.891,1.463,0.933,1.748,1.190,0.494,0.881,0.845,�쐼,2.6,��
2017/12/03,09:30,0.892,1.462,0.931,1.744,1.188,0.494,0.882,0.844,�쐼,3.2,��
2017/12/03,09:40,0.893,1.463,0.934,1.748,1.191,0.495,0.880,0.844,�쐼,3.1,��
2017/12/03,09:50,0.893,1.462,0.933,1.747,1.189,0.494,0.880,0.844,�쐼,3.0,��
2017/12/03,10:00,0.893,1.460,0.933,1.749,1.192,0.495,0.879,0.844,�쐼,1.7,��
2017/12/03,10:10,0.893,1.464,0.931,1.746,1.190,0.497,0.881,0.844,��쐼,2.0,��
2017/12/03,10:20,0.895,1.461,0.933,1.749,1.191,0.496,0.881,0.844,�쐼,2.6,��
2017/12/03,10:30,0.896,1.463,0.936,1.751,1.193,0.496,0.880,0.845,�쐼,3.7,��
2017/12/03,10:40,0.896,1.463,0.936,1.749,1.193,0.496,0.881,0.846,�쐼,4.6,��
2017/12/03,10:50,0.896,1.464,0.935,1.749,1.195,0.495,0.878,0.844,�쐼,6.1,��
2017/12/03,11:00,0.895,1.465,0.935,1.752,1.193,0.493,0.881,0.845,���쐼,6.8,��
2017/12/03,11:10,0.895,1.466,0.935,1.753,1.193,0.493,0.882,0.846,���쐼,5.8,��
2017/12/03,11:20,0.893,1.464,0.936,1.752,1.194,0.493,0.881,0.846,��,6.2,��
2017/12/03,11:30,0.895,1.462,0.935,1.751,1.196,0.494,0.882,0.845,���쐼,7.3,��
2017/12/03,11:40,0.894,1.465,0.937,1.754,1.194,0.494,0.883,0.844,��,6.6,��
2017/12/03,11:50,0.893,1.465,0.938,1.752,1.195,0.495,0.882,0.847,�쐼,5.5,��
2017/12/03,12:00,0.894,1.462,0.935,1.750,1.196,0.494,0.882,0.847,��,5.9,��
2017/12/03,12:10,0.893,1.461,0.935,1.752,1.197,0.496,0.883,0.846,���쐼,6.3,��
2017/12/03,12:20,0.895,1.464,0.934,1.751,1.195,0.497,0.883,0.847,���쐼,7.3,��
2017/12/03,12:30,0.897,1.464,0.934,1.753,1.196,0.498,0.882,0.845,���쐼,7.4,��
2017/12/03,12:40,0.897,1.464,0.936,1.753,1.195,0.499,0.884,0.844,���쐼,7.2,��
2017/12/03,12:50,0.897,1.465,0.936,1.751,1.197,0.499,0.885,0.843,���쐼,7.3,��
2017/12/03,13:00,0.897,1.463,0.937,1.754,1.195,0.500,0.883,0.844,���쐼,6.3,��
2017/12/03,13:10,0.898,1.464,0.935,1.753,1.195,0.498,0.882,0.843,���쐼,6.3,��
2017/12/03,13:20,0.899,1.465,0.938,1.755,1.195,0.498,0.883,0.845,��,7.2,��
2017/12/03,13:30,0.897,1.465,0.938,1.755,1.194,0.501,0.882,0.842,���쐼,5.9,��
2017/12/03,13:40,0.896,1.465,0.936,1.756,1.196,0.499,0.882,0.844,�쐼,4.3,��
2017/12/03,13:50,0.896,1.466,0.939,1.754,1.196,0.500,0.884,0.844,��쐼,4.4,��
2017/12/03,14:00,0.897,1.467,0.938,1.760,1.198,0.499,0.885,0.844,���쐼,3.1,��
2017/12/03,14:10,0.895,1.465,0.937,1.755,1.199,0.497,0.886,0.844,���쐼,4.1,��
2017/12/03,14:20,0.897,1.466,0.940,1.757,1.195,0.500,0.886,0.845,���쐼,5.1,��
2017/12/03,14:30,0.899,1.466,0.940,1.754,1.198,0.500,0.886,0.845,���쐼,6.7,��
2017/12/03,14:40,0.899,1.464,0.939,1.754,1.196,0.499,0.886,0.845,���쐼,5.1,��
2017/12/03,14:50,0.898,1.468,0.939,1.755,1.197,0.499,0.887,0.845,�쐼,5.1,��
2017/12/03,15:00,0.898,1.467,0.943,1.755,1.196,0.498,0.886,0.847,�쐼,5.0,��
2017/12/03,15:10,0.898,1.469,0.937,1.754,1.195,0.498,0.886,0.846,���쐼,2.6,��
2017/12/03,15:20,0.898,1.469,0.938,1.756,1.195,0.500,0.886,0.847,��,1.9,��
2017/12/03,15:30,0.899,1.470,0.939,1.755,1.197,0.500,0.887,0.847,��,4.4,��
2017/12/03,15:40,0.896,1.468,0.940,1.758,1.195,0.499,0.886,0.848,��,6.5,��
2017/12/03,15:50,0.896,1.468,0.939,1.756,1.195,0.501,0.888,0.847,��,4.9,��
2017/12/03,16:00,0.896,1.470,0.940,1.757,1.195,0.498,0.887,0.847,���k��,4.1,��
2017/12/03,16:10,0.899,1.469,0.940,1.757,1.194,0.499,0.885,0.847,��,4.7,��
2017/12/03,16:20,0.898,1.467,0.940,1.758,1.193,0.501,0.886,0.846,���k��,4.1,��
2017/12/03,16:30,0.899,1.468,0.938,1.758,1.196,0.498,0.885,0.847,��,4.5,��
2017/12/03,16:40,0.898,1.470,0.939,1.756,1.195,0.498,0.885,0.847,��,3.7,��
2017/12/03,16:50,0.898,1.468,0.939,1.754,1.196,0.500,0.886,0.846,��,3.1,��
2017/12/03,17:00,0.898,1.467,0.937,1.755,1.197,0.499,0.885,0.846,��,3.8,��
2017/12/03,17:10,0.898,1.469,0.937,1.752,1.196,0.498,0.885,0.846,��,3.5,��
2017/12/03,17:20,0.898,1.467,0.938,1.756,1.195,0.499,0.885,0.847,��,3.6,��
2017/12/03,17:30,0.899,1.469,0.939,1.752,1.194,0.497,0.884,0.847,��,2.3,��
2017/12/03,17:40,0.897,1.467,0.939,1.754,1.195,0.496,0.885,0.846,���쐼,2.2,��
2017/12/03,17:50,0.899,1.466,0.937,1.756,1.196,0.500,0.883,0.847,���쐼,2.3,��
2017/12/03,18:00,0.898,1.468,0.937,1.756,1.196,0.496,0.884,0.847,��,3.4,��
2017/12/03,18:10,0.898,1.468,0.939,1.753,1.195,0.498,0.885,0.845,��,3.7,��
2017/12/03,18:20,0.898,1.468,0.936,1.754,1.194,0.498,0.885,0.846,��,3.8,��
2017/12/03,18:30,0.895,1.467,0.937,1.756,1.196,0.499,0.883,0.845,���k��,3.6,��
2017/12/03,18:40,0.900,1.469,0.940,1.755,1.197,0.496,0.883,0.846,��,4.7,��
2017/12/03,18:50,0.901,1.469,0.938,1.757,1.198,0.497,0.885,0.846,��,5.0,��
2017/12/03,19:00,0.898,1.468,0.939,1.754,1.195,0.496,0.881,0.846,��,5.3,��
2017/12/03,19:10,0.898,1.468,0.939,1.754,1.194,0.498,0.885,0.847,��,5.4,��
2017/12/03,19:20,0.899,1.469,0.938,1.758,1.195,0.496,0.885,0.846,��,5.5,��
2017/12/03,19:30,0.897,1.471,0.939,1.758,1.193,0.498,0.884,0.846,��,4.4,��
2017/12/03,19:40,0.899,1.470,0.938,1.756,1.195,0.497,0.883,0.846,��,3.7,��
2017/12/03,19:50,0.899,1.468,0.938,1.755,1.197,0.497,0.884,0.845,��,2.6,��
2017/12/03,20:00,0.899,1.467,0.938,1.757,1.196,0.498,0.882,0.845,��,2.3,��
2017/12/03,20:10,0.897,1.467,0.937,1.753,1.194,0.497,0.882,0.845,��,3.3,��
2017/12/03,20:20,0.899,1.469,0.937,1.753,1.196,0.496,0.882,0.844,���쐼,5.4,��
2017/12/03,20:30,0.900,1.469,0.938,1.755,1.196,0.497,0.881,0.844,��,5.8,��
2017/12/03,20:40,0.898,1.468,0.938,1.755,1.197,0.496,0.883,0.845,���쐼,5.5,��
2017/12/03,20:50,0.900,1.466,0.934,1.756,1.194,0.495,0.883,0.845,���쐼,3.4,��
2017/12/03,21:00,0.897,1.468,0.937,1.752,1.195,0.495,0.882,0.844,���쐼,3.4,��
2017/12/03,21:10,0.897,1.468,0.934,1.754,1.196,0.496,0.882,0.845,���쐼,3.2,��
2017/12/03,21:20,0.898,1.467,0.937,1.755,1.194,0.496,0.882,0.845,���쐼,2.8,��
2017/12/03,21:30,0.899,1.466,0.935,1.754,1.195,0.498,0.882,0.845,��,1.9,��
2017/12/03,21:40,0.897,1.469,0.934,1.753,1.197,0.497,0.882,0.845,��쓌,1.7,��
2017/12/03,21:50,0.897,1.468,0.937,1.753,1.194,0.495,0.881,0.845,��쓌,1.4,��
2017/12/03,22:00,0.896,1.467,0.936,1.753,1.194,0.497,0.881,0.845,��,1.2,��
2017/12/03,22:10,0.897,1.466,0.935,1.754,1.196,0.496,0.881,0.845,��쓌,1.2,��
2017/12/03,22:20,0.896,1.467,0.936,1.755,1.194,0.496,0.882,0.845,��쓌,0.9,��
2017/12/03,22:30,0.898,1.466,0.937,1.755,1.198,0.496,0.883,0.847,���쐼,1.2,��
2017/12/03,22:40,0.897,1.467,0.937,1.755,1.195,0.496,0.882,0.844,��,1.1,��
2017/12/03,22:50,0.896,1.468,0.938,1.755,1.196,0.495,0.880,0.845,���쐼,1.5,��
2017/12/03,23:00,0.895,1.465,0.937,1.754,1.193,0.495,0.880,0.846,���쐼,1.7,��
2017/12/03,23:10,0.895,1.467,0.935,1.752,1.194,0.494,0.882,0.845,��쐼,1.5,��
2017/12/03,23:20,0.898,1.468,0.937,1.754,1.197,0.496,0.882,0.844,�쐼,2.2,��
2017/12/03,23:30,0.898,1.468,0.937,1.756,1.194,0.494,0.883,0.845,���쐼,3.1,��
2017/12/03,23:40,0.895,1.467,0.938,1.754,1.194,0.496,0.882,0.845,���쐼,3.4,��
2017/12/03,23:50,0.895,1.467,0.935,1.750,1.195,0.494,0.882,0.843,���쐼,4.4,��
